Theta_e
330 326 322 320 305 301 297 302 310 308 313 318 318 312 310 311 311 306 322 335 337 335 343 348 353 352 351 351 349 348 346 345 344 342 339 336 336 335 335 335 334 334 334 333 333 334 334 334 334
319 319 320 314 302 296 296 304 305 308 318 320 318 316 314 316 323 323 329 338 336 336 341 343 352 352 352 351 350 349 348 346 344 342 340 338 337 336 335 335 335 335 336 336 336 336 336 336 336
323 318 310 307 301 295 297 307 311 318 320 318 315 320 316 318 326 325 331 338 335 334 339 341 353 352 352 352 351 349 348 347 345 342 341 340 339 339 338 338 337 337 338 338 338 339 339 339 339
319 313 309 302 301 306 307 309 313 317 319 319 319 316 317 325 327 329 340 338 333 333 338 345 353 352 352 352 351 350 349 348 347 345 343 342 342 341 341 341 341 341 341 342 342 342 343 342 341
315 309 299 298 302 308 312 314 313 314 316 318 320 314 315 324 332 342 340 338 333 333 334 342 352 352 353 353 352 351 350 349 348 348 346 345 345 344 343 343 343 342 343 343 344 344 345 344 344
307 306 296 296 301 307 310 312 312 316 318 317 313 314 313 323 333 340 341 338 337 334 332 338 351 352 352 352 351 351 350 349 349 349 349 348 348 347 345 344 344 345 345 346 346 345 345 345 344
307 301 296 299 302 304 309 313 311 312 315 314 315 311 316 318 323 337 340 340 340 338 333 337 342 348 352 352 352 351 350 349 349 349 349 349 349 349 347 347 345 346 346 346 345 344 344 343 343
311 304 297 300 301 302 310 311 311 311 312 320 320 311 309 318 323 325 331 332 337 338 335 338 339 342 344 346 352 352 350 350 349 349 350 349 350 349 349 348 348 346 346 345 344 343 344 344 343
315 301 296 299 302 304 310 308 315 318 315 316 318 316 319 323 323 319 317 318 322 334 336 339 339 337 340 342 346 351 352 351 350 349 350 347 341 342 345 346 346 346 346 346 346 345 344 342 340
308 302 302 306 307 305 309 309 312 313 313 314 316 321 321 323 320 318 317 316 319 330 337 338 339 339 338 341 341 345 344 343 344 343 343 343 339 337 342 343 347 347 348 348 346 345 341 339 331
309 305 310 311 311 311 309 310 313 312 310 313 313 317 319 318 318 317 316 316 315 325 336 339 339 340 338 338 339 343 343 342 343 342 341 341 340 337 337 333 334 340 347 339 341 338 335 331 328
305 312 314 314 315 312 309 312 310 312 313 318 319 320 319 317 316 315 317 316 316 315 328 339 339 339 339 338 338 339 341 341 341 342 340 339 337 332 332 333 332 334 335 333 331 330 331 329 328
305 308 311 313 313 313 313 310 310 311 317 319 318 318 317 316 316 317 317 317 316 315 314 333 339 339 339 337 337 338 339 339 339 340 339 338 334 333 332 330 329 330 329 330 328 328 330 330 327
302 306 307 308 308 310 310 311 312 314 317 316 317 314 314 315 315 315 316 316 316 315 315 318 336 339 339 338 336 338 339 338 337 337 338 337 335 333 330 330 329 328 328 329 328 327 327 326 327
301 297 301 303 304 304 308 304 306 313 315 313 314 314 314 314 315 315 317 316 316 317 319 316 325 335 338 338 335 339 339 338 336 336 337 337 335 332 331 329 329 328 329 330 328 326 327 325 326
297 297 294 301 304 305 305 298 308 312 311 311 312 313 315 316 316 317 317 315 315 317 317 318 329 332 333 335 336 338 338 338 336 335 337 337 335 332 330 328 327 328 328 327 326 325 323 323 324
293 292 294 298 305 304 303 300 307 312 310 308 310 312 314 315 315 314 316 316 316 316 317 319 332 333 332 334 337 335 332 332 330 331 334 335 334 333 330 329 328 328 327 326 324 324 323 321 322
289 291 294 295 300 303 301 301 305 308 309 309 310 311 312 313 314 316 315 317 316 316 319 326 334 334 334 335 333 331 328 328 329 330 331 334 332 333 330 328 327 328 326 323 324 323 322 321 321
295 294 293 297 302 300 299 300 304 306 305 306 308 308 309 311 313 315 316 316 324 325 323 330 334 334 338 336 330 328 326 325 326 328 331 332 332 333 330 328 327 327 326 325 323 322 321 319 320
292 291 291 295 299 299 299 298 303 305 306 306 307 307 307 308 311 313 313 320 325 328 329 332 334 335 335 333 329 328 327 326 326 327 328 332 332 332 329 327 327 326 325 323 323 322 318 319 320
291 290 291 291 296 297 295 293 296 301 303 305 306 309 309 309 310 311 314 321 326 328 329 333 334 334 334 332 330 328 327 326 325 326 326 328 330 330 329 328 327 326 324 322 322 322 322 318 319
287 295 294 293 292 286 295 285 294 298 300 302 304 305 307 310 311 311 315 321 325 326 329 333 333 334 332 330 329 326 323 321 322 324 325 326 330 330 330 329 328 325 323 322 322 324 320 317 315
290 296 294 294 291 289 291 286 292 296 297 299 302 305 308 309 309 310 316 323 326 328 331 332 331 331 329 329 327 325 321 322 323 324 324 326 327 329 330 327 325 324 323 323 322 322 320 319 316
294 293 292 292 288 283 288 287 290 293 296 298 302 305 307 308 308 311 322 326 326 329 331 331 329 328 328 328 327 324 323 323 323 322 323 323 324 325 327 328 325 324 323 322 322 321 321 320 319
288 283 279 278 280 281 290 287 291 295 299 300 301 303 306 307 315 321 323 325 327 328 329 328 328 326 328 327 326 325 324 324 323 322 322 322 322 323 324 325 324 324 324 323 322 322 322 321 320
285 284 280 275 277 282 290 285 290 299 303 303 304 306 307 303 318 321 324 325 327 328 328 328 328 325 327 325 324 325 324 323 323 323 323 323 323 323 325 324 324 325 325 323 323 321 321 322 322
286 282 286 282 286 281 286 290 296 300 300 302 302 303 304 309 318 321 323 325 327 328 327 328 327 326 325 325 324 324 324 323 323 324 325 325 324 326 325 325 324 325 324 324 321 321 322 322 321
290 292 281 281 277 277 283 287 289 294 296 299 300 301 310 317 319 321 323 326 327 327 328 328 327 326 325 324 324 324 324 325 324 324 323 325 325 327 327 325 325 324 323 323 322 321 324 321 323
288 285 285 284 283 281 279 284 294 295 297 299 303 304 316 318 320 321 324 326 326 326 328 327 326 325 324 323 322 323 324 325 324 324 325 325 325 326 326 326 324 323 323 323 322 320 324 324 323
291 288 287 280 280 284 285 286 299 297 298 301 303 315 317 320 320 322 324 325 325 326 327 326 325 324 322 323 324 324 324 324 322 324 325 326 325 325 326 326 325 326 327 323 321 323 326 323 321
Wind_Speed
4 4 2 2 2 4 4 7 6 10 4 4 5 3 6 2 6 5 2 13 14 17 15 17 20 20 19 20 19 19 18 17 16 16 14 13 13 12 11 10 8 7 6 6 4 3 3 2 1
2 3 1 1 3 2 6 4 6 7 3 10 6 6 5 1 2 8 7 9 17 18 14 13 20 20 20 19 19 19 18 18 17 17 16 15 14 13 12 11 10 9 8 6 5 5 5 4 4
1 1 3 3 3 5 5 6 4 4 7 1 2 1 6 5 3 10 3 14 14 15 14 13 20 20 19 19 19 18 18 18 18 18 18 16 15 14 13 12 11 10 9 8 7 7 7 7 6
2 4 3 2 9 9 7 7 2 5 6 1 3 3 4 4 8 8 14 15 14 13 14 18 22 20 19 19 18 18 18 19 18 18 17 17 16 15 14 14 13 11 10 9 10 11 11 9 8
3 3 0 4 7 10 6 8 14 7 5 3 4 4 1 5 9 17 17 16 17 14 14 17 24 22 22 21 21 20 20 19 19 19 18 17 16 15 15 14 13 12 11 11 12 12 12 12 9
3 1 1 6 8 7 5 9 11 6 6 8 2 5 3 0 12 14 15 15 15 19 17 17 25 26 25 25 25 23 22 21 20 20 19 17 16 15 15 14 13 12 12 13 13 11 10 8 10
4 2 4 4 7 11 6 7 6 8 8 3 4 7 1 4 7 15 16 15 14 13 15 14 17 20 25 24 25 24 23 21 20 19 19 17 16 15 15 14 13 13 12 11 12 12 11 10 10
4 3 3 4 3 11 3 7 3 3 13 4 7 4 3 7 9 11 13 12 10 10 13 14 15 16 16 16 22 22 22 21 20 19 18 17 16 15 15 14 13 13 13 12 13 12 11 10 10
5 1 5 6 5 7 10 7 6 4 6 2 3 8 8 9 7 4 3 6 3 6 9 9 11 13 13 13 15 21 24 23 22 19 18 14 5 7 10 11 15 15 14 14 14 13 11 11 12
6 6 9 8 6 8 14 18 14 11 6 6 5 2 4 9 6 8 8 9 10 15 12 11 12 13 14 12 13 14 12 11 12 12 12 8 7 6 8 11 16 15 16 16 15 13 13 12 4
7 13 13 14 11 10 17 17 16 12 16 4 5 6 6 3 11 10 8 10 10 16 10 15 15 14 14 13 9 8 8 8 8 12 11 9 7 6 5 3 4 4 14 5 8 6 4 5 4
9 13 17 21 17 15 18 17 16 16 14 12 7 14 5 7 9 8 10 9 7 8 17 16 15 14 15 10 10 10 9 8 8 10 11 8 5 5 5 4 4 4 4 6 5 3 6 6 6
18 10 14 17 19 19 17 20 20 21 18 18 8 11 11 9 11 10 11 9 10 9 7 14 16 16 15 15 9 9 10 9 9 8 10 8 6 6 5 5 4 4 4 5 5 5 5 5 5
4 10 18 15 17 18 20 23 21 23 21 18 14 11 11 12 13 9 9 10 9 8 9 9 16 16 15 15 14 11 10 9 8 8 9 12 8 7 6 5 5 5 4 4 4 5 5 5 5
10 13 16 17 10 10 7 22 25 21 17 17 15 10 10 9 8 10 10 9 10 8 9 10 12 11 15 16 12 10 9 9 9 8 10 12 10 9 7 5 4 5 4 5 4 4 3 3 3
4 5 20 19 18 11 3 30 18 8 13 17 12 14 17 19 17 17 11 10 10 7 10 8 8 12 11 13 11 9 8 8 8 7 7 10 10 8 6 5 4 4 4 4 4 4 4 4 4
7 17 18 17 11 8 15 39 17 15 11 10 14 18 18 18 15 12 13 11 10 12 9 9 9 10 11 10 8 6 7 6 5 6 6 9 10 8 6 5 5 5 4 4 3 3 4 3 4
12 19 20 17 6 16 22 32 21 17 18 18 22 21 19 20 17 16 11 11 10 8 7 8 6 8 8 7 6 5 5 5 5 5 5 7 5 7 6 5 5 5 4 3 3 4 3 3 4
9 18 8 2 13 16 18 18 20 14 9 14 21 15 17 18 14 12 16 8 8 5 8 9 10 9 10 9 6 5 5 4 3 5 9 9 7 7 6 4 5 4 5 5 4 3 4 3 2
15 14 16 8 9 11 15 23 24 21 18 19 20 17 15 8 9 11 7 8 9 7 6 8 8 9 6 6 4 4 4 2 4 4 5 6 8 7 6 6 5 5 3 4 4 4 2 3 4
16 20 15 12 14 23 12 12 12 13 11 12 9 13 11 10 13 13 9 9 7 8 8 8 9 11 8 8 6 5 4 4 2 2 2 4 6 6 6 6 5 5 4 4 4 5 5 3 3
20 8 16 16 11 16 9 19 23 18 23 18 13 10 10 13 10 9 8 7 8 7 7 10 9 10 9 8 8 7 5 4 3 4 2 4 6 6 6 6 5 5 4 5 4 4 3 3 4
20 12 15 13 11 16 19 7 26 6 18 14 12 11 15 14 11 11 9 9 7 7 9 10 10 8 8 8 8 6 5 3 2 2 6 4 4 5 5 6 5 5 4 4 5 3 5 4 3
5 8 10 10 4 10 9 9 29 16 22 14 6 12 14 13 9 3 8 11 9 8 10 10 11 6 8 8 8 9 8 6 5 4 4 3 2 3 3 5 5 5 4 5 4 5 6 5 4
5 2 2 3 6 18 13 10 23 6 3 8 11 12 13 11 8 10 15 14 12 12 12 10 10 7 8 9 8 8 8 8 8 6 4 4 2 2 4 5 5 4 4 5 5 5 5 5 4
6 10 6 8 4 7 9 16 18 19 30 21 20 17 15 4 8 11 14 15 15 14 12 11 10 9 9 9 8 7 7 5 4 5 4 4 3 3 3 5 5 6 4 4 4 3 3 5 4
6 10 5 5 15 1 8 10 19 21 23 21 22 9 12 7 10 13 13 14 13 12 11 12 12 8 8 8 7 7 6 7 6 5 4 3 2 2 4 5 5 4 5 5 5 3 4 4 4
10 3 5 4 7 10 7 8 12 7 10 12 11 15 6 9 12 13 12 12 11 10 10 9 9 9 7 8 7 6 6 6 5 4 4 3 3 4 5 5 4 4 4 6 5 2 2 4 3
2 4 4 4 4 10 6 10 7 13 12 15 15 12 16 16 17 16 14 13 12 11 11 9 9 8 8 7 6 6 6 6 5 4 4 4 3 5 5 5 5 5 5 5 4 3 4 4 4
7 5 6 4 10 5 11 20 8 11 11 12 10 12 15 17 17 15 14 14 13 13 11 10 8 9 8 7 6 6 6 5 5 4 4 4 4 4 5 5 5 5 6 5 4 4 4 5 4
Wind_Direction
176 172 157 61 47 78 256 254 241 272 272 191 238 48 145 111 152 199 261 152 137 149 162 169 168 166 166 162 162 161 160 156 155 153 153 154 154 156 157 159 161 165 170 176 181 195 209 218 222
171 184 54 69 113 147 254 233 245 261 301 330 341 95 20 57 132 119 105 175 151 152 160 169 171 170 172 170 166 167 164 163 162 162 162 164 166 167 169 173 180 184 190 197 203 211 225 235 247
78 124 94 139 197 209 212 196 142 273 267 181 220 57 133 175 27 146 132 147 137 154 160 172 175 174 176 176 170 173 170 169 168 172 170 171 173 175 179 184 190 194 200 209 220 230 233 232 240
100 16 2 145 237 263 254 289 7 267 310 214 257 311 75 224 157 170 134 140 141 160 168 176 175 177 179 180 176 179 179 176 176 180 179 177 180 184 188 192 195 198 206 218 228 235 239 239 238
25 70 332 241 244 253 283 291 298 244 245 254 215 176 11 339 124 136 147 154 157 169 179 179 177 179 182 183 184 184 186 184 183 184 186 186 185 192 198 200 203 206 212 226 235 243 246 244 243
18 107 129 241 247 270 283 279 274 210 257 294 245 95 207 15 130 166 158 170 171 171 186 185 181 182 185 185 187 187 189 189 189 189 188 189 190 194 203 208 206 215 219 230 236 242 248 256 235
137 109 231 273 282 299 281 304 316 302 241 236 145 121 209 264 199 166 178 177 178 179 179 186 185 191 190 191 190 188 189 192 193 195 192 193 192 196 204 211 213 219 228 231 233 239 244 248 232
159 114 271 253 237 275 199 344 308 350 297 114 137 151 215 230 200 180 185 179 178 182 185 188 183 191 193 194 197 192 191 195 197 199 199 196 197 197 206 214 219 221 226 225 228 233 233 234 232
133 136 232 240 209 256 338 359 290 323 358 74 196 154 197 211 182 196 148 128 141 194 198 187 187 190 192 195 200 200 198 194 197 199 199 198 186 197 207 217 224 225 225 226 226 228 231 233 239
150 194 229 214 252 292 311 307 291 326 333 321 327 16 24 160 192 201 202 208 195 201 198 183 192 189 189 192 194 199 201 201 196 196 193 185 182 188 206 220 236 230 222 222 225 225 229 239 224
199 218 232 257 259 271 284 285 291 302 299 247 242 298 328 214 186 210 227 219 200 208 190 193 195 192 185 195 188 195 196 194 198 191 186 182 190 197 200 207 226 219 224 209 223 225 230 221 215
255 224 227 254 253 258 260 282 281 275 269 274 261 305 280 283 300 234 242 237 213 201 200 198 191 188 194 189 193 192 190 189 198 192 180 177 187 201 204 204 215 202 189 190 193 207 232 229 227
244 241 231 242 257 256 262 264 264 276 277 276 246 252 251 249 250 253 236 246 236 230 186 189 186 192 192 194 192 191 194 191 196 187 186 179 186 201 197 196 189 192 177 188 197 212 224 223 231
305 240 254 253 250 253 255 260 261 269 268 279 277 239 226 227 238 247 257 247 244 240 230 169 193 194 185 194 191 189 190 187 183 182 190 183 188 196 191 179 185 189 187 192 199 206 220 226 214
258 271 277 251 248 256 270 265 249 251 267 269 271 290 298 277 266 251 246 238 232 227 216 193 185 184 187 192 187 184 184 175 178 177 184 183 189 195 181 169 160 183 182 179 196 214 208 216 234
259 245 243 248 248 253 261 260 253 258 248 260 266 275 279 275 266 268 248 239 232 210 215 197 183 182 177 183 180 181 174 171 170 170 170 179 187 182 166 154 173 160 166 174 181 199 229 224 214
231 243 241 246 228 233 204 258 256 249 246 270 276 277 278 277 265 256 244 226 211 214 205 204 182 178 170 165 167 157 143 145 145 146 162 178 181 171 161 178 158 160 164 179 187 225 203 223 229
219 225 236 247 220 230 241 262 263 265 269 269 269 267 268 263 256 254 241 229 220 243 203 192 155 144 136 115 106 98 108 117 132 141 153 167 175 179 181 173 168 162 167 190 213 211 213 223 232
261 246 268 232 216 227 244 257 261 252 243 262 265 269 261 256 251 255 245 204 180 204 166 170 147 143 140 146 131 124 141 131 136 159 171 182 190 176 176 164 167 175 183 199 188 190 210 241 195
249 264 266 290 289 235 246 255 263 264 258 247 255 258 252 256 262 257 245 193 184 159 146 147 130 141 131 126 116 118 128 153 152 164 156 174 173 175 164 164 184 180 167 203 196 178 185 212 182
230 236 254 261 294 288 292 284 284 266 250 257 262 249 265 240 251 247 200 197 154 161 153 129 135 131 126 121 106 80 63 50 60 80 158 180 167 155 152 179 178 185 181 191 207 189 188 194 199
246 241 237 254 249 258 213 279 267 266 263 263 241 247 245 247 246 244 197 164 171 156 126 116 126 129 132 124 118 135 152 146 199 175 146 152 154 165 176 181 173 177 181 196 202 186 179 147 186
252 259 231 236 234 252 263 294 266 250 257 246 247 247 251 255 238 234 189 166 142 138 134 127 123 127 133 128 133 139 128 136 127 105 138 146 154 175 198 173 171 183 189 198 203 196 188 179 158
326 244 244 253 230 250 213 198 272 245 244 245 217 242 254 265 264 169 145 138 136 124 128 129 129 127 134 135 135 129 130 143 119 109 117 134 163 202 194 193 171 191 186 204 203 196 191 184 187
207 52 248 254 195 237 157 212 235 249 279 222 237 246 252 244 160 151 149 147 144 142 138 134 132 131 131 125 123 126 128 125 129 140 150 155 185 236 218 177 168 179 195 196 179 192 195 185 189
213 175 193 193 204 228 276 230 241 231 261 265 259 246 251 238 167 164 159 152 146 146 141 135 135 130 125 124 124 119 127 121 124 145 155 175 190 202 182 186 184 190 179 179 159 171 199 193 197
307 221 177 287 273 272 227 275 283 275 275 267 268 237 244 193 158 156 147 140 142 142 140 145 135 130 125 127 120 120 117 124 139 148 150 173 169 191 166 164 172 176 175 160 169 193 199 181 176
206 251 174 205 199 239 254 256 236 256 261 265 261 244 169 145 137 139 135 137 137 139 134 137 134 133 139 127 132 143 147 135 146 133 145 167 174 162 152 164 166 150 174 168 184 170 175 148 134
276 217 190 159 194 219 257 249 197 263 259 278 296 202 154 155 153 149 144 144 141 136 140 147 134 130 132 136 149 141 135 147 138 144 174 177 161 157 165 165 160 156 158 183 166 165 165 172 155
257 255 171 214 238 258 243 252 312 252 278 285 240 162 159 158 155 141 143 144 143 144 146 152 135 138 148 152 147 144 138 136 126 134 159 169 162 159 173 175 165 181 174 174 168 197 147 158 176